Retour au catalogue

SAUDISAT 1B

ActifRadio amateurLEO
NORAD 26549·PAYLOAD·🇸🇦 Saudi Arabia

Lancé Sep 26, 2000 depuis Baikonur Cosmodrome

Loading…

Prochains Passages (prochaines 24 heures)

TLE

FraisSource: Space-Track

Époque: Sep 14, 2026, 11:51 UTC

1 26549U 00057E   26257.49433808  .00000676  00000-0  82241-4 0  9999
2 26549  64.5471  75.3863 0050285 295.7954  63.7972 14.91333152404923

Suivez SAUDISAT 1B en temps réel avec AllMySat

Download on the App Store